Погода в Витиме

Погода в Витиме : погода сейчас, прогноз погоды и архив. Всё, что Вы хотите узнать о погоде в Витиме!

Хотите узнать прогноз погоды в Витиме? Тогда Вам сюда: Погода в Витиме

Поиск расширенной информации на нашем сайте:

Другие новости

Новости СМИ2

Главная страница сайта

Новости сайта

03.07.2017

Напоминаем, что на нашем специализированном сайте Метеоцентр.Азия вы можете получить высокодетализированные автоматические прогнозы погоды по пунктам России, СНГ и мира в авиационном формате (включающие направление и скорость ветра, видимость, явления погоды, количество и форму облачности, нижнюю и верхнюю границу облачности).


Погода в Витиме - сегодня

Время (UTC), дата Ветер
(°,м/с) 
Видим.   Явления Облачность Т
(°С)
Тd
(°С)
f(%) Тe
(°С)
Pmin
(гПа)
dP
(гПа)
Po
(мм)
O2
(г/м3)
Тmin Tmax R s Состояние
почвы
03 19.11.17 тихо ()   20000 м    1/0 верхняя 
[Ci fib]
-32.8 -35.1 80 -33  1032.1  0.1  754  347  -35.6         
06 19.11.17 тихо ()   20000 м    8/0 средняя, верхняя 
[Ac trans|Ci fib]
-27.4 -30.5 75 -27  1030.9  -0.5  753  339           
09 19.11.17 тихо ()   20000 м    3/0 верхняя 
[Ci fib]
-29.2 -31.6 80 -29  1030.4  -0.8  753  341           
12 19.11.17 тихо ()   20000 м    3/0 верхняя 
[Ci fib]
-31.5 -33.9 79 -32  1028.2  -2.4  751  344    -27.3       
15 19.11.17 тихо ()   20000 м    9/0 средняя, верхняя 
[Ac lent|Ci fib]
-26.6 -29 80 -27  1024.4  -3.2  748  336           
18 19.11.17 020 (С) 20000 м  слаб. снег  10/0 средняя, верхняя 
[Ac lent|Cs]
-24.3 -26.8 80 -27  1019.6  -4.4  745  331           
21 19.11.17 020 (С) 20000 м  слаб. снег  10/0 средняя, верхняя 
[Ac lent|Cs]
-23.6 -26.2 79 -27  1015  -4.4  742  329           
00 20.11.17 010 (С) 10 км  слаб. снег  10/0 средняя, верхняя 
[Ac lent|Cs]
-22.2 -24.8 79 -25  1012.2  -2.5  740  326  -31.5    36  равномерный
сухой снег
100% 
03 20.11.17 тихо ()   4000 м  слаб. ливневой снег  10/4 600 м кучево-дожд., верхняя 
[Cb cap|Cs]
-21.1 -23.6 80 -21  1010.8  -1.3  739  324           
06 20.11.17 тихо ()   4000 м  слаб. снег{ливн. осадки}  10/4 600 м верхняя 
[Sc|Cc]
-19.3 -21.9 80 -19  1009.4  -1.2  738  322           
09 20.11.17 тихо ()   4000 м  слаб. снег  10/4 600 м средняя 
[Sc|As op]
-18.1 -20.7 80 -18  1008.9  -0.4  738  320           
12 20.11.17 200 (Ю) 20000 м  слаб. снег  10/4 1000 м средняя 
[Sc|As op]
-17.9 -19.8 85 -18  1011.3  2.4  740  320    -17.7     
15 20.11.17 310 (СЗ) 20000 м  {снег}  10/3 1000 м средняя 
[Sc|As op]
-19.3 -21.2 85 -20  1013.4  1.9  741  323           
18 20.11.17 300 (СЗ) 20000 м  {снег}  10/3 1000 м средняя 
[Sc|As op]
-18.7 -20.6 85 -21  1015.7  2.3  743  323           
21 20.11.17 310 (СЗ) 20000 м    10/3 1000 м средняя 
[Sc|As op]
-20.1 -22.7 80 -23  1017.7  1.9  744  325           
00 21.11.17 тихо ()   20000 м  слаб. снег  10/3 1000 м верхняя 
[Sc|Cs]
-21.1 -24.4 75 -21  1020  2.1  746  327  -21.3    39  равномерный
сухой снег
100% 
03 21.11.17 тихо ()   20000 м  {снег}  9/0 средняя, верхняя 
[Ac lent|Ci fib]
-21.7 -24.9 75 -22  1021.6  1.5  747  329  -23.5         
06 21.11.17 260 (З) 20000 м  {снег}  10/0 верхняя 
[Sc|Cs]
-20.3 -24.4 70 -25  1023  1.6  748  327           
09 21.11.17 220 (ЮЗ) н/о  слаб. снег  10/0 верхняя 
[Sc|Cs]
-20.9 -24.2 75 -24  1024.7  1.4  749  329           
12 21.11.17 220 (ЮЗ) 20000 м  {снег}  10/3 1000 м верхняя 
[Sc|Cs]
-20.3 -23.6 75 -25  1025.2  0.6  749  328    -19.9  0.3     
15 21.11.17 210 (ЮЗ) 20000 м  слаб. снег  10/0 средняя, верхняя 
[Ac lent|Cs]
-19.5 -22.8 75 -24  1025.6  0.5  750  327           
18 21.11.17 220 (ЮЗ) 20000 м  слаб. снег  10/0 средняя, верхняя 
[Ac lent|Ci ing]
-19.3 -22.6 75 -25  1026  0.4  750  327           
21 21.11.17 240 (ЮЗ) 20000 м  {снег}  10/0 средняя, верхняя 
[Ac lent|Ci ing]
-19.6 -22.9 75 -24  1026.3  0.2  750  327           
00 22.11.17 230 (ЮЗ) 20000 м  слаб. снег  10/0 средняя, верхняя 
[Ac lent|Cs]
-19.9 -23.2 75 -24  1027.2  0.9  751  328  -20.4    40  равномерный
сухой снег
100% 
03 22.11.17 260 (З) 20000 м  слаб. снег  10/0 средняя, верхняя 
[Ac lent|Cs]
-20.5 -24.6 70 -25  1028.1  0.9  752  329           
Время (UTC), дата Ветер
(°,м/с) 
Видим.   Явления Облачность Т
(°С)
Тd
(°С)
f(%) Тe
(°С)
Pmin
(гПа)
dP
(гПа)
Po
(мм)
O2
(г/м3)
Тmin Tmax R s Состояние
почвы

Для получения пояснительной информации подведите курсор к названию столбца.

ПОГОДА в Витиме - архив

Всё, что Вы хотите узнать о погоде в Витиме - удобно и подробно!

Выберите нужную дату (начиная с 1 января 2015* года) и нажмите кнопку "Найти".
Будут отображены архивные сводки погоды по пункту Витим, начиная с указанной даты.


Отображать данные в формате CSV (для использования в таблицах Excel)


Внимание! Наш архив погоды предназначен исключительно для личного некоммерческого использования в познавательных целях. Если Вам необходимы официальные справки о состоянии погоды (для производственных, юридических, коммерческих и т.п. целей), обращайтесь в органы Росгидромета.

*Примечание: данная дата относится к архиву по метеостанциям СССР (Россия, СНГ, Балтия).
Архив по метеостанциям Зарубежной Европы и Азии (кроме Китая) хранится 10 дней, по другим регионам земного шара (Китай, Африка, Америка, Австралия, Океания) - 1 день.

Витим - район местоположения метеостанции


Название, широта, долгота, высота метеостанции:
Витим 59.4°ш. 112.6°д. 190 м над ур. моря [Российская Федерация]

Дополнительная информация

В oтличие oт бoльшинства пoгoдных сайтoв мы публикуем пoдрoбную метеoинфoрмацию в детальнoм прoфессиoнальнoм фoрмате.

Характеристики температуры и влажнoсти вoздуха измеряются на высoте 2 м в тени вдали oт зданий и деревьев.
Скoрoсть ветра измеряется на высoте 10 м (на урoвне рoста челoвека скoрoсть ветра ниже в 1.5-2 раза). Если метеoстанция нахoдится в гoрoде или в лесу, тo скoрoсть ветра занижена на 2-4 м/с пo сравнению с oткрытым местoм. Скoрoсть ветра над акватoриями крупных рек и oзёр, а также на вершинах хoлмoв на 2-5 м/с выше, чем в oбычных услoвиях.
Атмoсфернoе давление в разных тoчках местнoсти мoжет значительнo oтличаться oт давления на метеoстанции, в зависимoсти oт услoвий рельефа (при пoдъёме на 10 м давление пoнижается примернo на 1 мм рт.ст.).